This demonstration page uses our WeatherBlox Daily Observations layout. Learn more.

Left ArrowRight Arrow

39.08367, -84.50855

Hourly Observations for July 27, 2020

Temp ( °F °C ) Dew Point ( °F °C ) Humidity (%) Winds ( mph kmh ) Pressure ( in mb ) Visibility ( mi km ) Precip ( " mm )
12:53 am 00:53 Clear 77 25 72 22.2 85 85 SSW 5 7 30.01 1016 10 16 N/A
1:53 am 01:53 Clear 75 23.9 72 22.2 90 90 S 5 7 30.01 1016 10 16 N/A
2:53 am 02:53 Clear 76 24.4 72 22.2 88 88 ESE 3 6 30.01 1016 10 16 N/A
3:53 am 03:53 Clear 76 24.4 71 21.7 85 85 S 3 6 30.01 1016 10 16 N/A
4:53 am 04:53 Clear 73 22.8 71 21.7 94 94 S 6 9 30.00 1016 10 16 N/A
5:53 am 05:53 Mostly Clear 73 22.8 71 21.7 94 94 SSW 6 9 30.00 1016 10 16 N/A
6:53 am 06:53 Partly Cloudy 74 23.3 71 21.7 91 91 S 5 7 30.01 1016 10 16 N/A
7:53 am 07:53 Sunny 76 24.4 72 22.2 88 88 SSE 6 9 30.00 1016 10 16 N/A
8:53 am 08:53 Sunny 79 26.1 73 22.8 82 82 SSW 7 11 30.01 1016 10 16 N/A
9:53 am 09:53 Sunny 83 28.3 74 23.3 74 74 SW 7 11 29.99 1016 10 16 N/A
10:53 am 10:53 Mostly Sunny 85 29.4 74 23.3 70 70 WSW 10 17 29.99 1016 10 16 N/A
11:53 am 11:53 Partly Cloudy 87 30.6 75 23.9 67 67 SW 8 13 29.98 1015 10 16 N/A
12:53 pm 12:53 Mostly Cloudy 89 31.7 75 23.9 63 63 SW 9 15 29.97 1015 10 16 N/A
1:53 pm 13:53 Mostly Cloudy 89 31.7 75 23.9 63 63 SSW 13 20 29.93 1014 10 16 N/A
2:11 pm 14:11 Partly Cloudy with Nearby Thunderstorms 89 31.7 76 24.4 65 65 SSW 13 20 29.91 1013 10 16 N/A
2:23 pm 14:23 Mostly Cloudy with Thunderstorms 85 29.4 73 22.8 68 68 WSW 25 41 29.91 1013 10 16 N/A
2:38 pm 14:38 Mostly Cloudy with Nearby Thunderstorms 79 26.1 70 21.1 74 74 SW 12 19 29.92 1013 9 14 0.00 0.00
2:53 pm 14:53 Mostly Cloudy with Nearby Thunderstorms 77 25 70 21.1 79 79 SSW 12 19 29.93 1013 10 16 0.00 0.00
3:13 pm 15:13 Mostly Cloudy 76 24.4 71 21.7 85 85 S 6 9 29.92 1013 10 16 0.00 0.00
3:53 pm 15:53 Sunny 78 25.6 71 21.7 79 79 S 5 7 29.91 1013 10 16 0.00 0.00
4:53 pm 16:53 Sunny 84 28.9 74 23.3 72 72 SSW 3 6 29.89 1012 10 16 N/A
5:53 pm 17:53 Sunny 86 30 75 23.9 70 70 SSW 6 9 29.89 1012 10 16 N/A
6:35 pm 18:35 Mostly Cloudy with Nearby Thunderstorms 86 30 72 22.2 63 63 W 35 56 29.93 1014 10 16 N/A
6:53 pm 18:53 Mostly Cloudy with Nearby Thunderstorms 74 23.3 68 20 82 82 NW 17 28 29.96 1014 7 11 0.01 0.25
7:03 pm 19:03 Mostly Cloudy with Light Rain 73 22.8 68 20 84 84 VRB 7 11 29.94 1014 10 16 0.00 0.00
7:18 pm 19:18 Partly Cloudy 73 22.8 68 20 84 84 WNW 5 7 29.94 1014 10 16 0.00 0.00
7:53 pm 19:53 Partly Cloudy with Light Rain 74 23.3 68 20 82 82 W 6 9 29.95 1014 10 16 0.00 0.00
8:53 pm 20:53 Sunny 72 22.2 70 21.1 94 94 N N/A 29.93 1014 10 16 0.00 0.00
9:53 pm 21:53 Clear 72 22.2 69 20.6 91 91 S 5 7 29.93 1013 10 16 N/A
10:53 pm 22:53 Clear 72 22.2 70 21.1 94 94 S 5 7 29.93 1014 10 16 N/A
11:53 pm 23:53 Clear 72 22.2 70 21.1 94 94 S 5 7 29.94 1014 10 16 N/A

Powered by AerisWeather